Year,Month,Day,Hour,Minute,Value (Times are PST for temperature in C)
2009,09,26,00,00,11.50
2009,09,26,00,01,11.40
2009,09,26,00,02,11.40
2009,09,26,00,03,11.30
2009,09,26,00,04,11.30
2009,09,26,00,05,11.20
2009,09,26,00,06,11.20
2009,09,26,00,07,11.10
2009,09,26,00,08,11.10
2009,09,26,00,09,11.10
2009,09,26,00,10,11.00
2009,09,26,00,11,11.00
2009,09,26,00,12,11.00
2009,09,26,00,13,10.90
2009,09,26,00,14,10.90
2009,09,26,00,15,10.90
2009,09,26,00,16,10.90
2009,09,26,00,17,10.90
2009,09,26,00,18,10.90
2009,09,26,00,19,10.80
2009,09,26,00,20,10.80
2009,09,26,00,21,10.80
2009,09,26,00,22,10.80
2009,09,26,00,23,10.80
2009,09,26,00,24,10.70
2009,09,26,00,25,10.70
2009,09,26,00,26,10.70
2009,09,26,00,27,10.70
2009,09,26,00,28,10.70
2009,09,26,00,29,10.60
2009,09,26,00,30,10.60
2009,09,26,00,31,10.60
2009,09,26,00,32,10.60
2009,09,26,00,33,10.50
2009,09,26,00,34,10.50
2009,09,26,00,35,10.50
2009,09,26,00,36,10.50
2009,09,26,00,37,10.50
2009,09,26,00,38,10.50
2009,09,26,00,39,10.50
2009,09,26,00,40,10.50
2009,09,26,00,41,10.50
2009,09,26,00,42,10.50
2009,09,26,00,43,10.50
2009,09,26,00,44,10.50
2009,09,26,00,45,10.50
2009,09,26,00,46,10.50
2009,09,26,00,47,10.50
2009,09,26,00,48,10.50
2009,09,26,00,49,10.40
2009,09,26,00,50,10.40
2009,09,26,00,51,10.40
2009,09,26,00,52,10.40
2009,09,26,00,53,10.50
2009,09,26,00,54,10.50
2009,09,26,00,55,10.50
2009,09,26,00,56,10.50
2009,09,26,00,57,10.50
2009,09,26,00,58,10.50
2009,09,26,00,59,10.50
2009,09,26,01,00,10.50
2009,09,26,01,01,10.50
2009,09,26,01,02,10.50
2009,09,26,01,03,10.50
2009,09,26,01,04,10.50
2009,09,26,01,05,10.50
2009,09,26,01,06,10.50
2009,09,26,01,07,10.50
2009,09,26,01,08,10.50
2009,09,26,01,09,10.50
2009,09,26,01,10,10.50
2009,09,26,01,11,10.50
2009,09,26,01,12,10.50
2009,09,26,01,13,10.50
2009,09,26,01,14,10.50
2009,09,26,01,15,10.50
2009,09,26,01,16,10.60
2009,09,26,01,17,10.60
2009,09,26,01,18,10.60
2009,09,26,01,19,10.60
2009,09,26,01,20,10.60
2009,09,26,01,21,10.60
2009,09,26,01,22,10.60
2009,09,26,01,23,10.60
2009,09,26,01,24,10.60
2009,09,26,01,25,10.60
2009,09,26,01,26,10.60
2009,09,26,01,27,10.60
2009,09,26,01,28,10.70
2009,09,26,01,29,10.70
2009,09,26,01,30,10.70
2009,09,26,01,31,10.70
2009,09,26,01,32,10.70
2009,09,26,01,33,10.70
2009,09,26,01,34,10.70
2009,09,26,01,35,10.70
2009,09,26,01,36,10.70
2009,09,26,01,37,10.70
2009,09,26,01,38,10.70
2009,09,26,01,39,10.70
2009,09,26,01,40,10.70
2009,09,26,01,41,10.80
2009,09,26,01,42,10.80
2009,09,26,01,43,10.80
2009,09,26,01,44,10.80
2009,09,26,01,45,10.70
2009,09,26,01,46,10.70
2009,09,26,01,47,10.70
2009,09,26,01,48,10.70
2009,09,26,01,49,10.70
2009,09,26,01,50,10.70
2009,09,26,01,51,10.70
2009,09,26,01,52,10.70
2009,09,26,01,53,10.70
2009,09,26,01,54,10.70
2009,09,26,01,55,10.70
2009,09,26,01,56,10.70
2009,09,26,01,57,10.70
2009,09,26,01,58,10.70
2009,09,26,01,59,10.70
2009,09,26,02,00,10.70
2009,09,26,02,01,10.70
2009,09,26,02,02,10.70
2009,09,26,02,03,10.70
2009,09,26,02,04,10.70
2009,09,26,02,05,10.80
2009,09,26,02,06,10.80
2009,09,26,02,07,10.80
2009,09,26,02,08,10.80
2009,09,26,02,09,10.90
2009,09,26,02,10,10.90
2009,09,26,02,11,10.90
2009,09,26,02,12,10.90
2009,09,26,02,13,10.90
2009,09,26,02,14,10.90
2009,09,26,02,15,10.90
2009,09,26,02,16,10.90
2009,09,26,02,17,10.90
2009,09,26,02,18,10.90
2009,09,26,02,19,10.90
2009,09,26,02,20,10.80
2009,09,26,02,21,10.80
2009,09,26,02,22,10.80
2009,09,26,02,23,10.80
2009,09,26,02,24,10.80
2009,09,26,02,25,10.80
2009,09,26,02,26,10.80
2009,09,26,02,27,10.80
2009,09,26,02,28,10.80
2009,09,26,02,29,10.80
2009,09,26,02,30,10.80
2009,09,26,02,31,10.80
2009,09,26,02,32,10.80
2009,09,26,02,33,10.70
2009,09,26,02,34,10.70
2009,09,26,02,35,10.70
2009,09,26,02,36,10.70
2009,09,26,02,37,10.60
2009,09,26,02,38,10.60
2009,09,26,02,39,10.60
2009,09,26,02,40,10.60
2009,09,26,02,41,10.60
2009,09,26,02,42,10.60
2009,09,26,02,43,10.60
2009,09,26,02,44,10.60
2009,09,26,02,45,10.50
2009,09,26,02,46,10.50
2009,09,26,02,47,10.50
2009,09,26,02,48,10.50
2009,09,26,02,49,10.40
2009,09,26,02,50,10.40
2009,09,26,02,51,10.40
2009,09,26,02,52,10.30
2009,09,26,02,53,10.30
2009,09,26,02,54,10.30
2009,09,26,02,55,10.30
2009,09,26,02,56,10.30
2009,09,26,02,57,10.30
2009,09,26,02,58,10.30
2009,09,26,02,59,10.30
2009,09,26,03,00,10.30
2009,09,26,03,01,10.30
2009,09,26,03,02,10.30
2009,09,26,03,03,10.30
2009,09,26,03,04,10.30
2009,09,26,03,05,10.30
2009,09,26,03,06,10.20
2009,09,26,03,07,10.20
2009,09,26,03,08,10.20
2009,09,26,03,09,10.20
2009,09,26,03,10,10.30
2009,09,26,03,11,10.30
2009,09,26,03,12,10.30
2009,09,26,03,13,10.30
2009,09,26,03,14,10.40
2009,09,26,03,15,10.40
2009,09,26,03,16,10.30
2009,09,26,03,17,10.30
2009,09,26,03,18,10.30
2009,09,26,03,19,10.30
2009,09,26,03,20,10.20
2009,09,26,03,21,10.20
2009,09,26,03,22,10.20
2009,09,26,03,23,10.20
2009,09,26,03,24,10.10
2009,09,26,03,25,10.10
2009,09,26,03,26,10.10
2009,09,26,03,27,10.10
2009,09,26,03,28,10.00
2009,09,26,03,29,10.00
2009,09,26,03,30,10.00
2009,09,26,03,31,9.90
2009,09,26,03,32,9.90
2009,09,26,03,33,9.80
2009,09,26,03,34,9.80
2009,09,26,03,35,9.80
2009,09,26,03,36,9.70
2009,09,26,03,37,9.70
2009,09,26,03,38,9.70
2009,09,26,03,39,9.60
2009,09,26,03,40,9.60
2009,09,26,03,41,9.60
2009,09,26,03,42,9.50
2009,09,26,03,43,9.40
2009,09,26,03,44,9.40
2009,09,26,03,45,9.40
2009,09,26,03,46,9.40
2009,09,26,03,47,9.30
2009,09,26,03,48,9.30
2009,09,26,03,49,9.30
2009,09,26,03,50,9.30
2009,09,26,03,51,9.20
2009,09,26,03,52,9.20
2009,09,26,03,53,9.20
2009,09,26,03,54,9.20
2009,09,26,03,55,9.10
2009,09,26,03,56,9.10
2009,09,26,03,57,9.10
2009,09,26,03,58,9.10
2009,09,26,03,59,9.10
2009,09,26,04,00,9.00
2009,09,26,04,01,9.00
2009,09,26,04,02,9.00
2009,09,26,04,03,8.90
2009,09,26,04,05,8.90
2009,09,26,04,06,8.90
2009,09,26,04,07,8.80
2009,09,26,04,08,8.80
2009,09,26,04,09,8.80
2009,09,26,04,10,8.80
2009,09,26,04,11,8.80
2009,09,26,04,12,8.80
2009,09,26,04,13,8.80
2009,09,26,04,14,8.80
2009,09,26,04,15,8.80
2009,09,26,04,16,8.80
2009,09,26,04,17,8.80
2009,09,26,04,18,8.80
2009,09,26,04,19,8.80
2009,09,26,04,20,8.70
2009,09,26,04,21,8.70
2009,09,26,04,22,8.70
2009,09,26,04,23,8.70
2009,09,26,04,24,8.70
2009,09,26,04,25,8.70
2009,09,26,04,26,8.70
2009,09,26,04,27,8.70
2009,09,26,04,28,8.70
2009,09,26,04,29,8.70
2009,09,26,04,30,8.70
2009,09,26,04,31,8.70
2009,09,26,04,32,8.60
2009,09,26,04,33,8.60
2009,09,26,04,34,8.60
2009,09,26,04,35,8.60
2009,09,26,04,36,8.60
2009,09,26,04,37,8.60
2009,09,26,04,38,8.50
2009,09,26,04,39,8.50
2009,09,26,04,40,8.50
2009,09,26,04,41,8.40
2009,09,26,04,42,8.40
2009,09,26,04,43,8.40
2009,09,26,04,44,8.40
2009,09,26,04,45,8.40
2009,09,26,04,46,8.40
2009,09,26,04,47,8.40
2009,09,26,04,48,8.40
2009,09,26,04,49,8.40
2009,09,26,04,50,8.40
2009,09,26,04,51,8.40
2009,09,26,04,52,8.40
2009,09,26,04,53,8.40
2009,09,26,04,54,8.40
2009,09,26,04,55,8.30
2009,09,26,04,56,8.30
2009,09,26,04,57,8.30
2009,09,26,04,58,8.30
2009,09,26,04,59,8.30
2009,09,26,05,00,8.30
2009,09,26,05,01,8.30
2009,09,26,05,02,8.40
2009,09,26,05,03,8.40
2009,09,26,05,04,8.40
2009,09,26,05,05,8.40
2009,09,26,05,06,8.30
2009,09,26,05,07,8.30
2009,09,26,05,08,8.30
2009,09,26,05,09,8.30
2009,09,26,05,10,8.30
2009,09,26,05,11,8.20
2009,09,26,05,12,8.20
2009,09,26,05,13,8.20
2009,09,26,05,14,8.20
2009,09,26,05,15,8.10
2009,09,26,05,16,8.10
2009,09,26,05,17,8.10
2009,09,26,05,18,8.10
2009,09,26,05,19,8.10
2009,09,26,05,20,8.10
2009,09,26,05,21,8.10
2009,09,26,05,22,8.10
2009,09,26,05,23,8.00
2009,09,26,05,24,8.00
2009,09,26,05,25,8.00
2009,09,26,05,26,7.90
2009,09,26,05,27,7.90
2009,09,26,05,28,7.90
2009,09,26,05,29,7.90
2009,09,26,05,30,7.80
2009,09,26,05,31,7.80
2009,09,26,05,32,7.80
2009,09,26,05,33,7.80
2009,09,26,05,34,7.80
2009,09,26,05,35,7.70
2009,09,26,05,36,7.70
2009,09,26,05,37,7.70
2009,09,26,05,38,7.70
2009,09,26,05,39,7.70
2009,09,26,05,40,7.60
2009,09,26,05,41,7.60
2009,09,26,05,42,7.60
2009,09,26,05,43,7.60
2009,09,26,05,44,7.60
2009,09,26,05,45,7.60
2009,09,26,05,46,7.60
2009,09,26,05,47,7.60
2009,09,26,05,48,7.60
2009,09,26,05,49,7.60
2009,09,26,05,50,7.50
2009,09,26,05,51,7.50
2009,09,26,05,52,7.50
2009,09,26,05,53,7.60
2009,09,26,05,54,7.50
2009,09,26,05,55,7.50
2009,09,26,05,56,7.50
2009,09,26,05,57,7.50
2009,09,26,05,58,7.50
2009,09,26,05,59,7.40
2009,09,26,06,00,7.40
2009,09,26,06,01,7.40
2009,09,26,06,02,7.40
2009,09,26,06,03,7.40
2009,09,26,06,04,7.40
2009,09,26,06,05,7.40
2009,09,26,06,06,7.40
2009,09,26,06,07,7.40
2009,09,26,06,08,7.40
2009,09,26,06,09,7.40
2009,09,26,06,10,7.30
2009,09,26,06,11,7.30
2009,09,26,06,12,7.30
2009,09,26,06,13,7.30
2009,09,26,06,14,7.30
2009,09,26,06,15,7.30
2009,09,26,06,16,7.30
2009,09,26,06,17,7.30
2009,09,26,06,18,7.20
2009,09,26,06,19,7.20
2009,09,26,06,20,7.20
2009,09,26,06,21,7.20
2009,09,26,06,22,7.20
2009,09,26,06,23,7.20
2009,09,26,06,24,7.20
2009,09,26,06,25,7.20
2009,09,26,06,26,7.30
2009,09,26,06,27,7.30
2009,09,26,06,28,7.30
2009,09,26,06,29,7.30
2009,09,26,06,30,7.40
2009,09,26,06,31,7.40
2009,09,26,06,32,7.30
2009,09,26,06,33,7.30
2009,09,26,06,34,7.30
2009,09,26,06,35,7.30
2009,09,26,06,36,7.20
2009,09,26,06,37,7.20
2009,09,26,06,38,7.20
2009,09,26,06,39,7.10
2009,09,26,06,40,7.10
2009,09,26,06,41,7.10
2009,09,26,06,42,7.00
2009,09,26,06,43,7.00
2009,09,26,06,44,7.00
2009,09,26,06,45,7.00
2009,09,26,06,46,7.00
2009,09,26,06,47,7.00
2009,09,26,06,48,7.00
2009,09,26,06,49,7.00
2009,09,26,06,50,7.00
2009,09,26,06,51,7.00
2009,09,26,06,52,7.00
2009,09,26,06,53,7.00
2009,09,26,06,54,7.00
2009,09,26,06,55,6.90
2009,09,26,06,56,6.90
2009,09,26,06,57,6.90
2009,09,26,06,58,6.90
2009,09,26,06,59,6.90
2009,09,26,07,00,6.80
2009,09,26,07,01,6.80
2009,09,26,07,02,6.80
2009,09,26,07,03,6.80
2009,09,26,07,04,6.80
2009,09,26,07,05,6.80
2009,09,26,07,06,6.80
2009,09,26,07,07,6.80
2009,09,26,07,08,6.80
2009,09,26,07,09,6.90
2009,09,26,07,10,6.90
2009,09,26,07,11,6.90
2009,09,26,07,12,6.90
2009,09,26,07,13,6.90
2009,09,26,07,14,6.90
2009,09,26,07,15,6.90
2009,09,26,07,16,6.90
2009,09,26,07,17,6.80
2009,09,26,07,18,6.80
2009,09,26,07,19,6.80
2009,09,26,07,20,6.80
2009,09,26,07,21,6.80
2009,09,26,07,22,6.80
2009,09,26,07,23,6.80
2009,09,26,07,24,6.80
2009,09,26,07,25,6.80
2009,09,26,07,26,6.80
2009,09,26,07,27,6.80
2009,09,26,07,28,6.80
2009,09,26,07,29,6.80
2009,09,26,07,30,6.70
2009,09,26,07,31,6.70
2009,09,26,07,32,6.70
2009,09,26,07,33,6.70
2009,09,26,07,34,6.70
2009,09,26,07,35,6.70
2009,09,26,07,36,6.70
2009,09,26,07,37,6.70
2009,09,26,07,38,6.70
2009,09,26,07,39,6.70
2009,09,26,07,40,6.70
2009,09,26,07,41,6.70
2009,09,26,07,42,6.70
2009,09,26,07,43,6.70
2009,09,26,07,44,6.70
2009,09,26,07,45,6.70
2009,09,26,07,46,6.70
2009,09,26,07,47,6.70
2009,09,26,07,48,6.80
2009,09,26,07,49,6.80
2009,09,26,07,50,6.80
2009,09,26,07,51,6.90
2009,09,26,07,52,6.90
2009,09,26,07,53,7.00
2009,09,26,07,54,7.10
2009,09,26,07,55,7.20
2009,09,26,07,56,7.20
2009,09,26,07,57,7.20
2009,09,26,07,58,7.20
2009,09,26,07,59,7.20
2009,09,26,08,00,7.20
2009,09,26,08,01,7.20
2009,09,26,08,02,7.20
2009,09,26,08,03,7.30
2009,09,26,08,04,7.30
2009,09,26,08,05,7.40
2009,09,26,08,06,7.50
2009,09,26,08,07,7.50
2009,09,26,08,08,7.60
2009,09,26,08,09,7.70
2009,09,26,08,10,7.80
2009,09,26,08,11,7.90
2009,09,26,08,12,8.00
2009,09,26,08,13,8.10
2009,09,26,08,14,8.20
2009,09,26,08,15,8.30
2009,09,26,08,16,8.30
2009,09,26,08,17,8.40
2009,09,26,08,18,8.40
2009,09,26,08,19,8.40
2009,09,26,08,20,8.40
2009,09,26,08,21,8.40
2009,09,26,08,22,8.40
2009,09,26,08,23,8.40
2009,09,26,08,24,8.40
2009,09,26,08,25,8.40
2009,09,26,08,26,8.40
2009,09,26,08,27,8.50
2009,09,26,08,28,8.50
2009,09,26,08,29,8.50
2009,09,26,08,30,8.60
2009,09,26,08,31,8.60
2009,09,26,08,32,8.60
2009,09,26,08,33,8.60
2009,09,26,08,34,8.60
2009,09,26,08,35,8.70
2009,09,26,08,36,8.70
2009,09,26,08,37,8.70
2009,09,26,08,38,8.80
2009,09,26,08,39,8.80
2009,09,26,08,40,8.80
2009,09,26,08,41,8.90
2009,09,26,08,42,8.90
2009,09,26,08,43,9.00
2009,09,26,08,44,9.10
2009,09,26,08,45,9.20
2009,09,26,08,46,9.20
2009,09,26,08,47,9.30
2009,09,26,08,48,9.30
2009,09,26,08,49,9.40
2009,09,26,08,50,9.40
2009,09,26,08,51,9.50
2009,09,26,08,52,9.60
2009,09,26,08,53,9.60
2009,09,26,08,54,9.70
2009,09,26,08,55,9.80
2009,09,26,08,56,9.80
2009,09,26,08,57,9.90
2009,09,26,08,58,10.00
2009,09,26,08,59,10.10
2009,09,26,09,00,10.20
2009,09,26,09,01,10.20
2009,09,26,09,02,10.30
2009,09,26,09,03,10.40
2009,09,26,09,04,10.40
2009,09,26,09,05,10.50
2009,09,26,09,06,10.60
2009,09,26,09,07,10.70
2009,09,26,09,08,10.80
2009,09,26,09,09,10.90
2009,09,26,09,10,11.00
2009,09,26,09,11,11.20
2009,09,26,09,12,11.30
2009,09,26,09,13,11.40
2009,09,26,09,14,11.50
2009,09,26,09,15,11.70
2009,09,26,09,16,11.90
2009,09,26,09,17,12.00
2009,09,26,09,18,12.10
2009,09,26,09,19,12.20
2009,09,26,09,20,12.30
2009,09,26,09,21,12.30
2009,09,26,09,22,12.40
2009,09,26,09,23,12.50
2009,09,26,09,24,12.50
2009,09,26,09,25,12.60
2009,09,26,09,26,12.70
2009,09,26,09,27,12.80
2009,09,26,09,28,12.80
2009,09,26,09,29,12.90
2009,09,26,09,30,12.90
2009,09,26,09,31,13.00
2009,09,26,09,32,13.10
2009,09,26,09,33,13.10
2009,09,26,09,34,13.20
2009,09,26,09,35,13.30
2009,09,26,09,36,13.30
2009,09,26,09,37,13.40
2009,09,26,09,38,13.50
2009,09,26,09,39,13.50
2009,09,26,09,40,13.60
2009,09,26,09,41,13.60
2009,09,26,09,42,13.70
2009,09,26,09,43,13.70
2009,09,26,09,44,13.80
2009,09,26,09,45,13.90
2009,09,26,09,46,13.90
2009,09,26,09,47,14.00
2009,09,26,09,48,14.10
2009,09,26,09,49,14.10
2009,09,26,09,50,14.10
2009,09,26,09,51,14.20
2009,09,26,09,52,14.20
2009,09,26,09,53,14.20
2009,09,26,09,54,14.30
2009,09,26,09,55,14.40
2009,09,26,09,56,14.50
2009,09,26,09,57,14.50
2009,09,26,09,58,14.60
2009,09,26,09,59,14.70
2009,09,26,10,00,14.70
2009,09,26,10,01,14.80
2009,09,26,10,02,15.00
2009,09,26,10,03,15.00
2009,09,26,10,04,15.00
2009,09,26,10,05,15.10
2009,09,26,10,06,15.20
2009,09,26,10,07,15.20
2009,09,26,10,08,15.30
2009,09,26,10,09,15.30
2009,09,26,10,10,15.40
2009,09,26,10,11,15.40
2009,09,26,10,12,15.50
2009,09,26,10,13,15.50
2009,09,26,10,14,15.60
2009,09,26,10,15,15.70
2009,09,26,10,16,15.70
2009,09,26,10,17,15.80
2009,09,26,10,18,15.80
2009,09,26,10,19,15.80
2009,09,26,10,20,15.90
2009,09,26,10,21,15.90
2009,09,26,10,22,16.00
2009,09,26,10,23,16.10
2009,09,26,10,24,16.10
2009,09,26,10,25,16.20
2009,09,26,10,26,16.20
2009,09,26,10,27,16.30
2009,09,26,10,28,16.30
2009,09,26,10,29,16.40
2009,09,26,10,30,16.40
2009,09,26,10,31,16.40
2009,09,26,10,32,16.50
2009,09,26,10,33,16.50
2009,09,26,10,34,16.60
2009,09,26,10,35,16.70
2009,09,26,10,36,16.80
2009,09,26,10,37,16.90
2009,09,26,10,38,17.00
2009,09,26,10,39,17.10
2009,09,26,10,40,17.20
2009,09,26,10,41,17.20
2009,09,26,10,42,17.20
2009,09,26,10,43,17.20
2009,09,26,10,44,17.20
2009,09,26,10,45,17.30
2009,09,26,10,46,17.30
2009,09,26,10,47,17.40
2009,09,26,10,48,17.40
2009,09,26,10,49,17.40
2009,09,26,10,50,17.40
2009,09,26,10,51,17.50
2009,09,26,10,52,17.60
2009,09,26,10,53,17.60
2009,09,26,10,54,17.60
2009,09,26,10,55,17.60
2009,09,26,10,56,17.60
2009,09,26,10,57,17.60
2009,09,26,10,58,17.70
2009,09,26,10,59,17.70
2009,09,26,11,00,17.80
2009,09,26,11,01,17.90
2009,09,26,11,02,17.90
2009,09,26,11,03,18.00
2009,09,26,11,04,18.00
2009,09,26,11,05,18.00
2009,09,26,11,06,18.00
2009,09,26,11,07,18.10
2009,09,26,11,08,18.20
2009,09,26,11,09,18.30
2009,09,26,11,10,18.40
2009,09,26,11,11,18.50
2009,09,26,11,12,18.70
2009,09,26,11,13,18.80
2009,09,26,11,14,18.90
2009,09,26,11,15,19.00
2009,09,26,11,16,19.10
2009,09,26,11,17,19.20
2009,09,26,11,18,19.20
2009,09,26,11,19,19.30
2009,09,26,11,20,19.30
2009,09,26,11,21,19.30
2009,09,26,11,22,19.30
2009,09,26,11,23,19.20
2009,09,26,11,24,19.20
2009,09,26,11,25,19.20
2009,09,26,11,26,19.30
2009,09,26,11,27,19.30
2009,09,26,11,28,19.40
2009,09,26,11,29,19.60
2009,09,26,11,30,19.70
2009,09,26,11,31,19.70
2009,09,26,11,32,19.60
2009,09,26,11,33,19.60
2009,09,26,11,34,19.50
2009,09,26,11,35,19.50
2009,09,26,11,36,19.40
2009,09,26,11,37,19.50
2009,09,26,11,38,19.50
2009,09,26,11,39,19.60
2009,09,26,11,40,19.70
2009,09,26,11,41,19.80
2009,09,26,11,42,19.90
2009,09,26,11,43,20.00
2009,09,26,11,44,20.00
2009,09,26,11,45,20.00
2009,09,26,11,46,20.00
2009,09,26,11,47,20.00
2009,09,26,11,48,20.00
2009,09,26,11,49,19.90
2009,09,26,11,50,19.80
2009,09,26,11,51,19.80
2009,09,26,11,52,19.80
2009,09,26,11,53,19.80
2009,09,26,11,54,19.80
2009,09,26,11,55,19.80
2009,09,26,11,56,19.80
2009,09,26,11,57,19.80
2009,09,26,11,58,19.90
2009,09,26,11,59,19.90
2009,09,26,12,00,20.00
2009,09,26,12,01,20.00
2009,09,26,12,02,20.10
2009,09,26,12,03,20.10
2009,09,26,12,04,20.20
2009,09,26,12,05,20.20
2009,09,26,12,06,20.20
2009,09,26,12,07,20.20
2009,09,26,12,08,20.20
2009,09,26,12,09,20.20
2009,09,26,12,10,20.10
2009,09,26,12,11,20.10
2009,09,26,12,12,20.00
2009,09,26,12,13,20.00
2009,09,26,12,14,19.90
2009,09,26,12,15,19.90
2009,09,26,12,16,19.80
2009,09,26,12,17,19.70
2009,09,26,12,18,19.50
2009,09,26,12,19,19.40
2009,09,26,12,20,19.30
2009,09,26,12,21,19.20
2009,09,26,12,22,19.20
2009,09,26,12,23,19.20
2009,09,26,12,24,19.10
2009,09,26,12,25,19.00
2009,09,26,12,26,19.00
2009,09,26,12,27,19.00
2009,09,26,12,28,18.90
2009,09,26,12,29,18.90
2009,09,26,12,30,18.80
2009,09,26,12,31,18.70
2009,09,26,12,32,18.70
2009,09,26,12,33,18.60
2009,09,26,12,34,18.60
2009,09,26,12,35,18.60
2009,09,26,12,36,18.70
2009,09,26,12,37,18.70
2009,09,26,12,38,18.80
2009,09,26,12,39,18.80
2009,09,26,12,40,18.80
2009,09,26,12,41,18.90
2009,09,26,12,42,19.00
2009,09,26,12,43,19.10
2009,09,26,12,44,19.10
2009,09,26,12,45,19.20
2009,09,26,12,46,19.30
2009,09,26,12,47,19.30
2009,09,26,12,48,19.30
2009,09,26,12,49,19.30
2009,09,26,12,50,19.30
2009,09,26,12,51,19.40
2009,09,26,12,52,19.50
2009,09,26,12,53,19.60
2009,09,26,12,54,19.60
2009,09,26,12,55,19.60
2009,09,26,12,56,19.60
2009,09,26,12,57,19.60
2009,09,26,12,58,19.70
2009,09,26,12,59,19.80
2009,09,26,13,00,19.70
2009,09,26,13,01,19.60
2009,09,26,13,02,19.50
2009,09,26,13,03,19.40
2009,09,26,13,04,19.40
2009,09,26,13,05,19.40
2009,09,26,13,06,19.40
2009,09,26,13,07,19.50
2009,09,26,13,08,19.60
2009,09,26,13,09,19.60
2009,09,26,13,10,19.70
2009,09,26,13,11,19.80
2009,09,26,13,12,19.90
2009,09,26,13,13,19.90
2009,09,26,13,14,19.90
2009,09,26,13,15,19.90
2009,09,26,13,16,19.80
2009,09,26,13,17,19.60
2009,09,26,13,18,19.50
2009,09,26,13,19,19.50
2009,09,26,13,20,19.40
2009,09,26,13,21,19.40
2009,09,26,13,22,19.30
2009,09,26,13,23,19.30
2009,09,26,13,24,19.30
2009,09,26,13,25,19.30
2009,09,26,13,26,19.40
2009,09,26,13,27,19.40
2009,09,26,13,28,19.40
2009,09,26,13,29,19.30
2009,09,26,13,30,19.30
2009,09,26,13,31,19.30
2009,09,26,13,32,19.30
2009,09,26,13,33,19.30
2009,09,26,13,34,19.20
2009,09,26,13,35,19.20
2009,09,26,13,36,19.10
2009,09,26,13,37,19.00
2009,09,26,13,38,19.00
2009,09,26,13,39,19.00
2009,09,26,13,40,19.00
2009,09,26,13,41,19.00
2009,09,26,13,42,19.10
2009,09,26,13,43,19.10
2009,09,26,13,44,19.10
2009,09,26,13,45,19.20
2009,09,26,13,46,19.20
2009,09,26,13,47,19.10
2009,09,26,13,48,19.10
2009,09,26,13,49,19.00
2009,09,26,13,50,19.00
2009,09,26,13,51,18.90
2009,09,26,13,52,18.90
2009,09,26,13,53,19.00
2009,09,26,13,54,19.10
2009,09,26,13,55,19.10
2009,09,26,13,56,19.20
2009,09,26,13,57,19.20
2009,09,26,13,58,19.30
2009,09,26,13,59,19.30
2009,09,26,14,00,19.20
2009,09,26,14,01,19.20
2009,09,26,14,02,19.20
2009,09,26,14,03,19.20
2009,09,26,14,04,19.20
2009,09,26,14,05,19.20
2009,09,26,14,06,19.20
2009,09,26,14,07,19.30
2009,09,26,14,08,19.30
2009,09,26,14,09,19.30
2009,09,26,14,10,19.30
2009,09,26,14,11,19.30
2009,09,26,14,12,19.30
2009,09,26,14,13,19.20
2009,09,26,14,14,19.20
2009,09,26,14,15,19.10
2009,09,26,14,16,19.10
2009,09,26,14,17,19.00
2009,09,26,14,18,19.00
2009,09,26,14,19,19.00
2009,09,26,14,20,19.00
2009,09,26,14,21,19.10
2009,09,26,14,22,19.10
2009,09,26,14,23,19.10
2009,09,26,14,24,19.10
2009,09,26,14,25,19.20
2009,09,26,14,26,19.20
2009,09,26,14,27,19.30
2009,09,26,14,28,19.30
2009,09,26,14,29,19.30
2009,09,26,14,30,19.30
2009,09,26,14,31,19.30
2009,09,26,14,32,19.40
2009,09,26,14,33,19.40
2009,09,26,14,34,19.40
2009,09,26,14,35,19.40
2009,09,26,14,36,19.30
2009,09,26,14,37,19.30
2009,09,26,14,38,19.40
2009,09,26,14,39,19.40
2009,09,26,14,40,19.40
2009,09,26,14,41,19.40
2009,09,26,14,42,19.40
2009,09,26,14,43,19.40
2009,09,26,14,44,19.40
2009,09,26,14,45,19.30
2009,09,26,14,46,19.30
2009,09,26,14,47,19.30
2009,09,26,14,48,19.40
2009,09,26,14,49,19.40
2009,09,26,14,50,19.50
2009,09,26,14,51,19.50
2009,09,26,14,52,19.40
2009,09,26,14,53,19.40
2009,09,26,14,54,19.40
2009,09,26,14,55,19.40
2009,09,26,14,56,19.40
2009,09,26,14,57,19.40
2009,09,26,14,58,19.50
2009,09,26,14,59,19.50
2009,09,26,15,00,19.50
2009,09,26,15,01,19.50
2009,09,26,15,02,19.60
2009,09,26,15,03,19.60
2009,09,26,15,04,19.60
2009,09,26,15,05,19.70
2009,09,26,15,06,19.70
2009,09,26,15,07,19.70
2009,09,26,15,08,19.60
2009,09,26,15,09,19.60
2009,09,26,15,10,19.50
2009,09,26,15,11,19.50
2009,09,26,15,12,19.50
2009,09,26,15,13,19.50
2009,09,26,15,14,19.50
2009,09,26,15,15,19.50
2009,09,26,15,16,19.50
2009,09,26,15,17,19.50
2009,09,26,15,18,19.50
2009,09,26,15,19,19.50
2009,09,26,15,20,19.50
2009,09,26,15,21,19.50
2009,09,26,15,22,19.40
2009,09,26,15,23,19.40
2009,09,26,15,24,19.30
2009,09,26,15,25,19.20
2009,09,26,15,26,19.20
2009,09,26,15,27,19.20
2009,09,26,15,28,19.30
2009,09,26,15,29,19.40
2009,09,26,15,30,19.40
2009,09,26,15,31,19.40
2009,09,26,15,32,19.40
2009,09,26,15,33,19.40
2009,09,26,15,34,19.40
2009,09,26,15,35,19.40
2009,09,26,15,36,19.40
2009,09,26,15,37,19.40
2009,09,26,15,38,19.30
2009,09,26,15,39,19.30
2009,09,26,15,40,19.20
2009,09,26,15,41,19.20
2009,09,26,15,42,19.30
2009,09,26,15,43,19.30
2009,09,26,15,44,19.40
2009,09,26,15,45,19.50
2009,09,26,15,46,19.50
2009,09,26,15,47,19.40
2009,09,26,15,48,19.40
2009,09,26,15,49,19.50
2009,09,26,15,50,19.50
2009,09,26,15,51,19.50
2009,09,26,15,52,19.50
2009,09,26,15,53,19.40
2009,09,26,15,54,19.30
2009,09,26,15,55,19.30
2009,09,26,15,56,19.30
2009,09,26,15,57,19.30
2009,09,26,15,58,19.30
2009,09,26,15,59,19.40
2009,09,26,16,00,19.40
2009,09,26,16,01,19.50
2009,09,26,16,02,19.40
2009,09,26,16,03,19.40
2009,09,26,16,04,19.30
2009,09,26,16,05,19.30
2009,09,26,16,06,19.30
2009,09,26,16,07,19.30
2009,09,26,16,08,19.20
2009,09,26,16,09,19.20
2009,09,26,16,10,19.10
2009,09,26,16,11,19.10
2009,09,26,16,12,19.10
2009,09,26,16,13,19.10
2009,09,26,16,14,19.20
2009,09,26,16,15,19.20
2009,09,26,16,16,19.10
2009,09,26,16,17,19.10
2009,09,26,16,18,19.00
2009,09,26,16,19,18.90
2009,09,26,16,20,18.90
2009,09,26,16,21,18.90
2009,09,26,16,22,18.90
2009,09,26,16,23,18.90
2009,09,26,16,24,18.90
2009,09,26,16,25,18.80
2009,09,26,16,26,18.80
2009,09,26,16,27,18.80
2009,09,26,16,28,18.80
2009,09,26,16,29,18.80
2009,09,26,16,30,18.80
2009,09,26,16,31,18.80
2009,09,26,16,32,18.80
2009,09,26,16,33,18.80
2009,09,26,16,34,18.80
2009,09,26,16,35,18.80
2009,09,26,16,36,18.80
2009,09,26,16,37,18.70
2009,09,26,16,38,18.70
2009,09,26,16,39,18.70
2009,09,26,16,40,18.70
2009,09,26,16,41,18.60
2009,09,26,16,42,18.60
2009,09,26,16,43,18.60
2009,09,26,16,44,18.60
2009,09,26,16,45,18.60
2009,09,26,16,46,18.60
2009,09,26,16,47,18.60
2009,09,26,16,48,18.60
2009,09,26,16,49,18.60
2009,09,26,16,50,18.60
2009,09,26,16,51,18.70
2009,09,26,16,52,18.70
2009,09,26,16,53,18.70
2009,09,26,16,54,18.70
2009,09,26,16,55,18.70
2009,09,26,16,56,18.70
2009,09,26,16,57,18.70
2009,09,26,16,58,18.70
2009,09,26,16,59,18.60
2009,09,26,17,00,18.60
2009,09,26,17,01,18.50
2009,09,26,17,02,18.50
2009,09,26,17,03,18.40
2009,09,26,17,04,18.40
2009,09,26,17,05,18.40
2009,09,26,17,06,18.40
2009,09,26,17,07,18.40
2009,09,26,17,08,18.40
2009,09,26,17,09,18.40
2009,09,26,17,10,18.40
2009,09,26,17,11,18.40
2009,09,26,17,12,18.40
2009,09,26,17,13,18.40
2009,09,26,17,14,18.30
2009,09,26,17,15,18.30
2009,09,26,17,16,18.30
2009,09,26,17,17,18.30
2009,09,26,17,18,18.20
2009,09,26,17,19,18.20
2009,09,26,17,20,18.20
2009,09,26,17,21,18.20
2009,09,26,17,22,18.20
2009,09,26,17,23,18.20
2009,09,26,17,24,18.20
2009,09,26,17,25,18.20
2009,09,26,17,26,18.20
2009,09,26,17,27,18.20
2009,09,26,17,28,18.20
2009,09,26,17,29,18.20
2009,09,26,17,30,18.20
2009,09,26,17,31,18.10
2009,09,26,17,32,18.10
2009,09,26,17,33,18.10
2009,09,26,17,34,18.10